TimeAST,TemperatureF,Dew PointF,Humidity,Sea Level PressureIn,VisibilityMPH,Wind Direction,Wind SpeedMPH,Gust SpeedMPH,PrecipitationIn,Events,Conditions,WindDirDegrees,DateUTC
12:00 AM,82.4,77.0,84,29.80,6.2,ENE,6.9,-,N/A,,Partly Cloudy,70,2013-09-13 04:00:00
1:00 AM,82.4,75.2,79,29.77,6.2,ESE,2.3,-,N/A,,Partly Cloudy,120,2013-09-13 05:00:00
2:00 AM,80.6,75.2,84,29.74,6.2,ESE,2.3,-,N/A,,Partly Cloudy,120,2013-09-13 06:00:00
3:00 AM,80.6,75.2,84,29.74,6.2,Variable,1.2,-,N/A,,Partly Cloudy,0,2013-09-13 07:00:00
4:00 AM,80.6,75.2,84,29.74,6.2,East,3.5,-,N/A,,Partly Cloudy,80,2013-09-13 08:00:00
5:00 AM,82.4,75.2,79,29.74,6.2,East,5.8,-,N/A,,Partly Cloudy,90,2013-09-13 09:00:00
6:00 AM,80.6,75.2,84,29.74,6.2,South,1.2,-,N/A,,Partly Cloudy,180,2013-09-13 10:00:00
7:00 AM,82.4,75.2,79,29.77,6.2,SE,2.3,-,N/A,,Scattered Clouds,130,2013-09-13 11:00:00
8:00 AM,81,75,77,29.81,19,South,3.5,,,,Partly Cloudy,170,2013-09-13 12:00:00
8:00 AM,80.6,75.2,84,29.80,6.2,Variable,3.5,-,N/A,,Scattered Clouds,0,2013-09-13 12:00:00
9:00 AM,87.8,77.0,70,29.83,6.2,Variable,3.5,-,N/A,,Partly Cloudy,0,2013-09-13 13:00:00
10:00 AM,87.8,75.2,66,29.83,6.2,NE,4.6,-,N/A,,Partly Cloudy,50,2013-09-13 14:00:00
11:00 AM,89,77,59,29.82,28,ENE,6.9,,,,Scattered Clouds,70,2013-09-13 15:00:00
11:00 AM,89.6,77.0,66,29.80,6.2,ENE,6.9,-,N/A,,Partly Cloudy,60,2013-09-13 15:00:00
12:00 PM,87.8,77.0,70,29.80,6.2,ENE,6.9,-,N/A,Rain,Light Rain Showers,70,2013-09-13 16:00:00
1:00 PM,87.8,75.2,66,29.77,6.2,East,5.8,-,N/A,,Scattered Clouds,80,2013-09-13 17:00:00
2:00 PM,88,77,63,29.76,28,East,6.9,,,,Partly Cloudy,80,2013-09-13 18:00:00
2:00 PM,87.8,77.0,70,29.74,6.2,ENE,6.9,-,N/A,,Scattered Clouds,60,2013-09-13 18:00:00
3:00 PM,87.8,77.0,70,29.74,6.2,ENE,6.9,-,N/A,,Scattered Clouds,60,2013-09-13 19:00:00
4:00 PM,87.8,75.2,66,29.71,6.2,ENE,6.9,-,N/A,,Partly Cloudy,70,2013-09-13 20:00:00
5:00 PM,87,75,60,29.71,37,East,8.1,,,,Scattered Clouds,90,2013-09-13 21:00:00
5:00 PM,87.8,75.2,66,29.71,6.2,ENE,6.9,-,N/A,,Partly Cloudy,70,2013-09-13 21:00:00
6:00 PM,86.0,71.6,62,29.71,6.2,ENE,10.4,-,N/A,,Partly Cloudy,60,2013-09-13 22:00:00
7:00 PM,84.2,75.2,74,29.71,6.2,ENE,10.4,-,N/A,,Partly Cloudy,60,2013-09-13 23:00:00
8:00 PM,84,75,68,29.76,37,East,6.9,,,,Scattered Clouds,90,2013-09-14 00:00:00
8:00 PM,84.2,75.2,74,29.74,6.2,ENE,8.1,-,N/A,,Partly Cloudy,70,2013-09-14 00:00:00
9:00 PM,84.2,75.2,74,29.77,6.2,ENE,6.9,-,N/A,,Partly Cloudy,60,2013-09-14 01:00:00
10:00 PM,84.2,77.0,79,29.77,6.2,ENE,6.9,-,N/A,,Partly Cloudy,70,2013-09-14 02:00:00
11:00 PM,83,76,75,,37,East,6.9,,,,Scattered Clouds,100,2013-09-14 03:00:00
11:00 PM,84.2,77.0,79,29.80,6.2,East,8.1,-,N/A,,Partly Cloudy,80,2013-09-14 03:00:00